FW2027 Weather Reports


time (UTC)temp
C
wind
direction
speed
KPH
gust
KPH
rain 1hr
cm
rain 24hr
cm
rain mn
cm
humidity
%
barometer
mb
20260510201543 9 36 0.0 1.6 0.00 0.00 0.00 71 1013.0
20260510200043 10 36 0.0 3.2 0.00 0.00 0.00 70 1013.0
20260510194542 10 36 1.6 4.8 0.00 0.00 0.00 68 1013.0
20260510193043 10 22 1.6 12.9 0.00 0.00 0.00 65 1013.0
20260510191549 11 355 3.2 9.7 0.00 0.00 0.00 64 1013.1
20260510190050 11 9 4.8 12.9 0.00 0.00 0.00 62 1013.1
20260510184539 11 31 6.4 12.9 0.00 0.00 0.00 63 1013.1
20260510183039 12 31 9.7 16.1 0.00 0.00 0.00 60 1013.1
20260510181538 12 32 11.3 20.9 0.00 0.00 0.00 60 1013.1
20260510180043 12 16 4.8 14.5 0.00 0.00 0.00 64 1013.1
20260510174540 12 32 6.4 17.7 0.00 0.00 0.00 62 1013.1
20260510173038 12 44 12.9 20.9 0.00 0.00 0.00 59 1013.1
20260510171542 12 18 6.4 14.5 0.00 0.00 0.00 61 1013.2
20260510170034 12 29 9.7 24.1 0.00 0.00 0.00 57 1013.4
20260510164531 13 24 12.9 20.9 0.00 0.00 0.00 58 1013.5
20260510163028 13 5 8.0 17.7 0.00 0.00 0.00 62 1013.6
20260510161526 12 35 6.4 16.1 0.00 0.00 0.00 62 1013.9
20260510160025 13 15 8.0 17.7 0.00 0.00 0.00 62 1014.1
20260510154522 12 33 4.8 19.3 0.00 0.00 0.00 66 1014.2
20260510153022 13 23 8.0 17.7 0.00 0.00 0.00 64 1014.4
20260510151519 13 71 9.7 22.5 0.00 0.00 0.00 66 1014.4
20260510150017 12 27 8.0 22.5 0.00 0.00 0.00 66 1014.9
20260510144522 12 34 9.7 19.3 0.00 0.00 0.00 67 1014.8
20260510143019 12 47 8.0 20.9 0.00 0.00 0.00 68 1015.1
20260510141511 12 57 8.0 19.3 0.00 0.00 0.00 69 1015.2
20260510140010 12 43 9.7 25.7 0.00 0.00 0.00 68 1015.4
20260510134509 12 16 11.3 24.1 0.00 0.00 0.00 70 1015.5
20260510133013 12 22 9.7 17.7 0.00 0.00 0.00 70 1015.6
20260510131503 12 16 11.3 22.5 0.00 0.00 0.00 74 1015.8
20260510130100 11 59 14.5 20.9 0.00 0.00 0.00 73 1015.9
20260510124604 11 20 11.3 19.3 0.00 0.00 0.00 74 1016.0
20260510123057 11 45 11.3 19.3 0.00 0.00 0.00 76 1016.2
20260510121557 11 61 9.7 17.7 0.00 0.00 0.00 78 1016.5
20260510120051 10 39 11.3 24.1 0.00 0.00 0.00 77 1016.7
20260510114549 10 50 9.7 19.3 0.00 0.00 0.00 78 1016.8
20260510113046 10 49 8.0 22.5 0.00 0.00 0.00 80 1016.9
20260510111604 10 50 9.7 19.3 0.00 0.00 0.00 80 1017.1
20260510110043 10 38 9.7 24.1 0.00 0.00 0.00 81 1017.3
20260510104542 9 53 14.5 25.7 0.00 0.00 0.00 81 1017.3
20260510103040 9 26 8.0 20.9 0.00 0.00 0.00 82 1017.5
20260510101540 9 45 9.7 25.7 0.00 0.00 0.00 83 1017.5
20260510100039 9 57 11.3 22.5 0.00 0.00 0.00 84 1017.6
20260510094537 9 28 12.9 20.9 0.00 0.00 0.00 85 1017.6
20260510093056 8 24 8.0 19.3 0.00 0.00 0.00 86 1017.7
20260510091536 8 40 8.0 16.1 0.00 0.00 0.00 86 1017.9
20260510090049 8 34 12.9 20.9 0.00 0.00 0.00 86 1018.0
20260510084534 8 19 11.3 19.3 0.00 0.00 0.00 87 1018.0
20260510083033 8 36 11.3 20.9 0.00 0.00 0.00 87 1017.9
20260510081532 8 51 8.0 19.3 0.00 0.00 0.00 88 1017.9
20260510080031 8 68 8.0 19.3 0.00 0.00 0.00 88 1017.8
20260510074531 8 34 6.4 16.1 0.00 0.00 0.00 89 1017.9
20260510073028 8 22 9.7 20.9 0.00 0.00 0.00 89 1018.0
20260510071526 8 54 6.4 22.5 0.00 0.00 0.00 89 1017.7
20260510070028 8 52 9.7 17.7 0.00 0.00 0.00 89 1017.7
20260510064526 8 53 11.3 17.7 0.00 0.00 0.00 90 1017.5
20260510063021 8 59 4.8 16.1 0.00 0.00 0.00 90 1017.6
20260510061519 8 35 11.3 17.7 0.00 0.00 0.00 91 1017.6
20260510060017 8 46 9.7 19.3 0.00 0.00 0.00 91 1017.6
20260510054517 8 42 8.0 16.1 0.00 0.03 0.00 92 1017.4
20260510053013 8 44 8.0 16.1 0.00 0.03 0.00 92 1017.5
20260510051512 8 51 4.8 17.7 0.00 0.03 0.00 92 1017.6
20260510050011 8 30 6.4 20.9 0.00 0.03 0.00 92 1017.5
20260510044511 8 34 8.0 22.5 0.00 0.03 0.00 92 1017.6
20260510043010 8 22 8.0 14.5 0.00 0.03 0.00 91 1017.7
20260510041506 8 66 4.8 20.9 0.00 0.03 0.00 91 1017.7
20260510040008 8 31 11.3 20.9 0.00 0.03 0.00 91 1017.9
20260510034503 8 29 6.4 16.1 0.00 0.03 0.00 91 1017.9
20260510033002 8 32 6.4 19.3 0.00 0.03 0.00 91 1017.8
20260510031600 8 89 6.4 16.1 0.00 0.03 0.00 91 1018.0
20260510030100 8 26 6.4 17.7 0.00 0.03 0.00 91 1017.9
20260510024559 8 18 11.3 22.5 0.00 0.03 0.00 91 1017.9
20260510023102 8 39 8.0 19.3 0.00 0.03 0.00 91 1017.9
20260510021554 9 42 8.0 19.3 0.00 0.03 0.00 90 1017.8
20260510020052 9 360 11.3 20.9 0.00 0.03 0.00 90 1017.9
20260510014553 9 34 9.7 17.7 0.00 0.03 0.00 90 1017.8
20260510013048 10 48 8.0 16.1 0.00 0.03 0.00 89 1017.9
20260510011555 10 25 8.0 17.7 0.00 0.03 0.00 89 1018.0
20260510010054 10 35 4.8 14.5 0.00 0.03 0.00 88 1018.0
20260510004544 10 49 3.2 19.3 0.00 0.03 0.00 88 1018.0
20260510003042 10 36 6.4 17.7 0.00 0.03 0.00 88 1017.9
20260510001539 10 33 6.4 16.1 0.00 0.03 0.00 87 1017.8
20260510000037 10 5 11.3 17.7 0.00 0.03 0.00 87 1017.8
20260509234536 10 26 6.4 14.5 0.00 0.05 0.00 87 1017.7
20260509233036 10 21 9.7 16.1 0.00 0.05 0.00 86 1017.8
20260509231532 10 41 4.8 14.5 0.00 0.05 0.00 86 1017.8
20260509230029 10 36 8.0 17.7 0.00 0.05 0.00 86 1017.7
20260509224535 11 39 9.7 19.3 0.00 0.05 0.05 86 1017.6
20260509223027 11 11 6.4 17.7 0.00 0.05 0.05 86 1017.5
20260509221530 11 10 8.0 22.5 0.00 0.05 0.05 86 1017.4
20260509220029 11 13 3.2 14.5 0.00 0.05 0.05 85 1017.3
20260509214524 11 350 6.4 17.7 0.00 0.15 0.05 85 1017.3
20260509213023 12 5 9.7 19.3 0.00 0.15 0.05 85 1017.1
20260509211524 12 38 9.7 19.3 0.00 0.15 0.05 84 1016.9
20260509210022 12 67 11.3 19.3 0.00 0.15 0.05 84 1016.8
20260509204521 12 21 6.4 19.3 0.00 0.15 0.05 84 1016.5
20260509203026 12 13 11.3 22.5 0.00 0.15 0.05 85 1016.4